Sigil TimeFrame

99 2020-08-01 15:53:19
NameTime LeftWindow Opens
Old World Drake24d 19:142020-07-09 15:28:00
Balerion, Dragon of Dread2d 07:382020-08-01 03:04:00
Noxious Slug1d 18:512020-08-01 15:51:00
Varsanor, Master of Darkness1d 18:302020-08-01 16:12:00
Quiver, The Renegade1d 08:072020-08-02 02:35:00
Xynak, the Arcane Master1d 06:512020-08-02 03:51:00
Murfax, Beast of the Caves1d 03:252020-08-02 07:17:00
Hackerphage, Protector of the Gateway1d 00:462020-08-02 09:56:00
Numerocure, The Black Messenger of Evil0d 21:012020-08-02 13:41:00
King Ashnar, Lord of the Unliving0d 19:382020-08-02 15:04:00
Amalgamated Apparition0d 14:122020-08-02 20:30:00
Pinosis0d 12:482020-08-02 21:54:00
Akkel the Enflamed Warrior0d 09:592020-08-03 00:43:00
Tylos, The Lord Master0d 09:582020-08-03 00:44:00
Wanhiroeaz the Devourer0d 08:232020-08-03 02:19:00
Lord Suka0d 07:482020-08-03 02:54:00
Baron Mu, Dark Rider of the Undead0d 06:122020-08-03 04:30:00
Shadow0d 04:392020-08-03 06:03:00
Ebliss, Fallen Angel of Despair0d 04:342020-08-03 06:08:00
Vitkros, Hydra of the Deep0d 03:382020-08-03 07:04:00
Synge, The Red Dragon0d 02:502020-08-03 07:52:00
Melt Bane, The Forbidden Demon Dragon0d 02:062020-08-03 08:36:00
Archdevil Yirkon0d 01:252020-08-03 09:17:00
Freezebreed, The Frozen Manipulator0d 01:432020-08-03 12:26:00
Crane0d 03:142020-08-03 13:57:00
Garland, The Lord Keeper0d 03:362020-08-03 14:19:00
Zikkir the Dark Archer0d 04:412020-08-03 15:24:00
Skarthul the Avenged0d 04:482020-08-03 15:31:00
Nar Zhul, Slayer of All0d 05:112020-08-03 15:54:00
Tsort0d 05:252020-08-03 16:08:00
Gnorb0d 06:132020-08-03 16:56:00
Rotborn, Eater of the Dead0d 06:172020-08-03 17:00:00
Detox0d 06:462020-08-03 17:29:00
Ancient Magus Tarkin0d 06:482020-08-03 17:31:00
Lacuste of the Swarm0d 06:582020-08-03 17:41:00
Animated Captain0d 07:402020-08-03 18:23:00
Jorun the Blazing Swordsman0d 09:242020-08-03 20:07:00
Traxodon the Plaguebringer0d 10:012020-08-03 20:44:00
Volgan the Living Ironbark0d 10:052020-08-03 20:48:00
Lord Xordam0d 10:462020-08-03 21:29:00
Sarcrina the Astral Priestess0d 11:382020-08-03 22:21:00
Jazzmin, Maiden of Vitality0d 11:482020-08-03 22:31:00
Sylvanna TorLai0d 13:312020-08-04 00:14:00
Lord Varan0d 14:442020-08-04 01:27:00
Lord Narada0d 15:372020-08-04 02:20:00
Lady Ariella0d 16:192020-08-04 03:02:00
Skybrine The Inescapable0d 16:432020-08-04 03:26:00
Brutalitar, Lord of the Underworld0d 18:562020-08-04 05:39:00
Thanox, Balancer of Chaos0d 19:542020-08-04 06:37:00
Slashbrood, Devourer of the Blackness0d 19:592020-08-04 06:42:00
Mistress of the Sword0d 21:322020-08-04 08:15:00
Hyrak, Bringer of Nightmares0d 22:482020-08-04 09:31:00
Threk, King of Lords0d 23:152020-08-04 09:58:00
Smoot the Yeti1d 00:552020-08-04 11:38:00
Esquin, the Kinetic Master1d 02:172020-08-04 13:00:00
Anguish1d 03:432020-08-04 14:26:00
Grivvek, Protector of the Brood1d 04:352020-08-04 15:18:00
Zertan, The Collector1d 05:092020-08-04 15:52:00
Nessam1d 05:172020-08-04 16:00:00
Bloodchill the Grizzly1d 05:412020-08-04 16:24:00
Anvilfist1d 05:432020-08-04 16:26:00
Rancid, Lord of Thugs1d 06:402020-08-04 17:23:00
Terrance, Rebel of Rallis1d 09:152020-08-04 19:58:00
Kro Shuk, Doomslayer1d 14:592020-08-05 01:42:00
Murderface1d 15:262020-08-05 02:09:00
Keeper of Nature1d 16:452020-08-05 03:28:00
Howldroid, Tormentor of the Pit1d 18:232020-08-05 05:06:00
Sigil, Lich of Woe1d 18:322020-08-05 05:15:00
Lady Chaos, Queen of the Abyss1d 20:012020-08-05 06:44:00
Samatha Dark-Soul1d 20:272020-08-05 07:10:00
The Emerald Assassin1d 23:002020-08-05 09:43:00
Ganja the Stone Golem2d 01:002020-08-05 11:43:00
Raiyar, the Shadow Master2d 01:032020-08-05 11:46:00
Dreg nor, Keeper of the Infernal Essence2d 02:182020-08-05 13:01:00
Lord Sibannac2d 05:472020-08-05 16:30:00
Ag Nabak the Abomination2d 05:472020-08-05 16:30:00
Gregov, Knight of the Woods2d 08:182020-08-05 19:01:00
Bolkor, the Holy Master2d 13:062020-08-05 23:49:00
Dexor, Victor of Veldara2d 17:592020-08-06 04:42:00
Viserion, the Necrodragon2d 18:332020-08-06 05:16:00
Crantos, Defender of Ultimation2d 19:212020-08-06 06:04:00
Straya, the Underworld Ruler2d 20:052020-08-06 06:48:00
Gorganus of the Wood2d 21:422020-08-06 08:25:00
Ormsul the Putrid2d 22:052020-08-06 08:48:00
Nayark the Mummified Sorcerer2d 23:222020-08-06 10:05:00
Great Lord Ganeshan3d 00:162020-08-06 10:59:00
Kretok, Descendant of Nature3d 04:182020-08-06 15:01:00
Windstrike The Vile3d 10:402020-08-06 21:23:00
Crolvak, the Fire Master3d 11:102020-08-06 21:53:00
Felroc, Overseer of Hellfire4d 05:012020-08-07 15:44:00
Dlanod, the Crazed Chancellor4d 06:022020-08-07 16:45:00
Karvaz, Lord of Alsayic4d 13:402020-08-08 00:23:00
Nafir, God of Desolation4d 15:062020-08-08 01:49:00
Q-SEC Commander4d 20:072020-08-08 06:50:00
Emperor Neudeus, Controller of the Universe5d 01:492020-08-08 12:32:00
Beast of Cards28d 01:022020-07-06 09:40:00
Jade Dragonite25d 08:452020-07-09 01:57:00
Rook, Hand of Arkron9d 23:072020-07-24 11:35:00
Shaik, Servant of Arkron9d 23:012020-07-24 11:41:00